Tracking 30314 objects as of 20-Apr-2025
HD Live streaming from Space Station
objects crossing your sky now

IRIDIUM 33 DEB

Track IRIDIUM 33 DEB now!
10-day predictions


NORAD ID: 35618
Int'l Code: 1997-051QQ
Perigee: 706.9 km
Apogee: 751.7 km
Inclination: 86.3 °
Period: 99.2 minutes
Semi major axis: 7100 km
RCS: 0.0121 m2 (small)
Launch date: September 14, 1997
Source: United States (US)
Launch site: TYURATAM MISSILE AND SPACE COMPLEX (TTMTR)

Note: This is SATELLITE DEBRIS
Your satellite tracking list
Your tracking list is empty




NASA's NSSDC Master Catalog

Two Line Element Set (TLE):
1 35618U 97051QQ  25100.74964443  .00004027  00000-0  10053-2 0  9998
2 35618  86.3333 100.9507 0031591 119.6962 240.7394 14.51073502618255
Source of the keplerian elements: AFSPC